{"data":{"norad_id":64901,"epoch":"2026-09-19T21:45:45.456768Z","epoch_age_seconds":69385,"freshness":"FRESH","line1":"1 64901U 25156C   26262.90677612  .00002642  00000+0  12513-3 0  9993","line2":"2 64901  97.4340 340.2381 0001299  29.4091 330.7217 15.20201978 63924","mean_motion":15.20201978,"eccentricity":0.0001299,"inclination_deg":97.434,"raan_deg":340.2381,"arg_perigee_deg":29.4091,"mean_anomaly_deg":330.7217,"bstar":0.00012513,"rev_number":6392,"period_min":94.724255121315,"perigee_km":504.33670194083,"apogee_km":506.12500090863,"semimajor_km":6883.3678514247,"source":"CELESTRAK","updated_at":"2026-09-20T09:00:33.982606Z"}}